Regional Weather Roundup
Issued by NWS

Home | Current Version | Previous Version | Graphics & Text | Print | Product List | Glossary On
Versions: 1 2 3 4 5 6 7 8 9 10 11 12 13 14 15 16 17 18 19 20 21 22 23 24 25 26 27 28 29 30 31 32 33 34 35 36 37 38 39 40 41 42 43 44 45 46 47 48 49 50
813
ASUS43 KMKX 192120
RWRWI

WISCONSIN REGIONAL WEATHER ROUNDUP
NATIONAL WEATHER SERVICE MILWAUKEE/SULLIVAN WI
300 PM CST MON FEB 19 2018

NOTE: "FAIR" INDICATES FEW OR NO CLOUDS BELOW 12,000 FEET WITH NO
SIGNIFICANT WEATHER AND/OR OBSTRUCTIONS TO VISIBILITY.

WIZ001-002-006>008-014>016-023>028-192200-
NORTHWEST WISCONSIN

CITY           SKY/WX    TMP DP  RH WIND       PRES   REMARKS
SUPERIOR ARPT  LGT SNOW  18  15  88 NE14G29   30.06S VSB 3/4 WCI   5
ASHLAND        SNOW      18  14  84 NE18G28   30.05F VSB 1/2 WCI   2
HAYWARD        LGT SNOW  19  12  74 NE21G29   29.94F VSB 3/4 WCI   3
SIREN          LGT SNOW  19  15  82 NE13G20   29.94S WCI   6
CUMBERLAND     LGT SNOW  21  16  79 NE21G29   29.87S WCI   6
RICE LAKE      LGT SNOW  22  19  87 NE15G24   29.89S WCI   9
CHETEK         CLOUDY    22  18  85 NE9G20    29.88R FOG     WCI  11
LADYSMITH      CLOUDY    21  17  85 NE15G22   29.90R FOG     WCI   8
EAU CLAIRE     FRZ RAIN  23  20  88 NE16G24   29.83S FOG     WCI  10
MENOMONIE      MIX PCPN  24  21  85 NE16G24   29.83F WCI  11
NEW RICHMOND   LGT SNOW  22  18  85 NE18G25   29.85S WCI   8
OSCEOLA        LGT SNOW  22  18  83 NE16G22   29.91S WCI   8
$$

WIZ003>005-009-010-017-018-192200-
NORTH CENTRAL WISCONSIN

CITY           SKY/WX    TMP DP  RH WIND       PRES   REMARKS
MANITOWISH WTR LGT SNOW  17  16  95 NE9       29.91F WCI   5
ARBOR VITAE    LGT SNOW  20  17  86 NE8G16    29.90F WCI  10
WOODRUFF       LGT SNOW  20  17  86 NE8G16    29.90F WCI  10
RHINELANDER    LGT SNOW  21  17  84 NE15G22   29.89S VSB 1   WCI   8
EAGLE RIVER    FLURRIES  19  15  82 NE14      29.90F WCI   6
LAND O LAKES   LGT SNOW  19  15  86 NE10G20   29.94F WCI   7
PHILLIPS       FLURRIES  19  15  87 NE14G22   29.89S WCI   5
TOMAHAWK       LGT SNOW  21  18  88 NE8       29.88S WCI  12
MEDFORD        MIX PCPN  23  20  89 NE16G22   29.82S WCI  10
MERRILL        MIX PCPN  24  21  88 NE13      29.88R WCI  12
$$

WIZ029-030-035-036-043>047-192200-
CENTRAL WISCONSIN

CITY           SKY/WX    TMP DP  RH WIND       PRES   REMARKS
WAUSAU         FRZ RAIN  26  21  81 NE8G17    29.84R WCI  18
MOSINEE        CLOUDY    28  25  86 NE18      29.85R WCI  16
MARSHFIELD     CLOUDY    28  25  88 NE21G28   29.79S WCI  15
STEVENS POINT  CLOUDY    29  26  90 NE17G23   29.84R WCI  17
WAUPACA        CLOUDY    33  28  80 NE10G22   29.84F WCI  25
WAUTOMA        CLOUDY    33  29  85 NE21G26   29.81S WCI  21
WISC RAPIDS    MIX PCPN  32  27  81 E14G25    29.81S WCI  22
CAMP DOUGLAS   CLOUDY    36  34  92 E8        29.76S FOG     WCI  30
$$

WIZ011>013-019>022-031-037>040-048>050-192200-
NORTHEAST WISCONSIN

CITY           SKY/WX    TMP DP  RH WIND       PRES   REMARKS
ANTIGO         CLOUDY    23  20  89 NE15      29.85S WCI  10
SHAWANO        CLOUDY    29  23  78 NE15G21   29.90R WCI  18
OCONTO         CLOUDY    28  24  84 N12       29.91R WCI  18
STURGEON BAY   CLOUDY    29  25  85 N13       29.91S WCI  19
GREEN BAY      FRZ RAIN  27  23  85 NE28G44   29.89R FOG     WCI  11
MANITOWOC      MIX PCPN  32  30  93 NE13G23   29.87R FOG     WCI  22
APPLETON       CLOUDY    28  23  80 NE21G31   29.84R WCI  15
CLINTONVILLE   CLOUDY    29  23  78 NE9       29.87F WCI  20
OSHKOSH        CLOUDY    31  28  89 NE17G25   29.83R WCI  19
$$

WIZ032>034-041-042-053>061-192200-
SOUTHWEST WISCONSIN

CITY           SKY/WX    TMP DP  RH WIND       PRES   REMARKS
LA CROSSE      CLOUDY    39  32  76 NE9G20    29.75R WCI  33
SPARTA         CLOUDY    36  32  87 NE10G16   29.76S WCI  28
VIROQUA        CLOUDY    37  37 100 E10       29.71R WCI  29
BOSCOBEL       LGT RAIN  39  38  96 NE5       29.73S FOG
PRAIRIE DU CHI DRIZZLE   38  37  95 E3        29.71R
PLATTEVILLE    CLOUDY    37  37 100 E12       29.70R WCI  29
$$

WIZ056-057-062-063-064-067-068-192200-
SOUTH CENTRAL WISCONSIN

CITY           SKY/WX    TMP DP  RH WIND       PRES   REMARKS
REEDSBURG      LGT RAIN  37  37 100 E12G22    29.76R WCI  29
BARABOO/DELLS  CLOUDY    37  33  87 E13G22    29.76R FOG     WCI  28
LONE ROCK      LGT RAIN  38  37  97 E13       29.75R VSB 1/2 WCI  30
MINERAL POINT  LGT RAIN  39  39 100 E12       29.70S WCI  32
MADISON        LGT RAIN  38  37  97 E12       29.78R VSB 3/4 WCI  30
MIDDLETON      CLOUDY    39  39 100 NE7       29.76R WCI  34
WATERTOWN      LGT RAIN  38  38 100 E13       29.77R WCI  30
MONROE         FOG       37  37 100 NE7       29.73R VSB<1/4 WCI  32
JANESVILLE     CLOUDY    39  39 100 E12       29.73S FOG     WCI  32
$$

WIZ051-052-058>065-066-070>072-192200-
SOUTHEAST WISCONSIN

CITY           SKY/WX    TMP DP  RH WIND       PRES   REMARKS
MILWAUKEE      LGT RAIN  38  37  97 NE8       29.80F VSB 3/4 WCI  32
WAUKESHA       LGT RAIN  36  36 100 NE14      29.79S FOG     WCI  27
MILWAUKEE/TIMM DRIZZLE   36  32  87 NE10G17   29.81S WCI  28
RACINE         LGT RAIN  38  38 100 NE8       29.81R FOG     WCI  32
BURLINGTON     MIX PCPN  39  38  94 E7        29.77F WCI  34
KENOSHA        LGT RAIN  39  37  92 N7        29.78R VSB 3/4 WCI  34
FOND DU LAC    CLOUDY    36  31  82 NE18      29.82R HAZE    WCI  26
SHEBOYGAN      RAIN      33  33 100 NE22      29.84R FOG     WCI  21
WEST BEND      DRIZZLE   36  34  93 E13G18    29.81R WCI  27
JUNEAU         CLOUDY    37  33  85 E14       29.79R WCI  28
$$

LSZ147-162-192200-
LAKE SUPERIOR

STATION/POSITION TIME  TEMP    WIND        PRES    WAVE
                       AIR SEA DIR/SP/G            HT/PER
                 (UTC) (F)     (DEG/KT/KT) (MB)    (FT/S)
DEVILS ISLAND    2100   18      50/ 26/ 32 1020.5F
SAXON HARBOR     2051   18      50/ 22/ 26 1017.3S
$$

LMZ867-665-643>646-192200-
LAKE MICHIGAN

STATION/POSITION TIME  TEMP    WIND        PRES    WAVE
                       AIR SEA DIR/SP/G            HT/PER
                 (UTC) (F)     (DEG/KT/KT) (MB)    (FT/S)
NORTHPORT PIER   2042   28                 1013.9F
KEWAUNEE LAKESHO 2054   31      30/  9/ 15 1011.4R
SHEBOYGAN LAKESH 2100   34      20/ 20/ 22 1011.0R
PORT WASHINGTON  2100   35      40/ 10/ 19 1011.2
MILWAUKEE LAKESH 2100   37      10/  9/ 10   N/A
KENOSHA   LAKESH 2100   38      10/ 11/ 15 1009.1
$$

TC  - TEMPERATURE IN CELSIUS
VSB - VISIBILITY IN STATUTE MILES
WCI - WIND CHILL INDEX
HX  - HEAT INDEX





USA.gov is the U.S. government's official web portal to all federal, state and local government web resources and services.